| time (UTC) | temp F | wind direction | speed MPH | gust MPH | rain 1hr in | rain 24hr in | rain mn in | humidity % | barometer mb |
| 20260507230643 | 48 | 116 | 1.0 | 2.0 | 0.00 | 0.00 | 0.00 | 75 | 1014.2 |
| 20260507225745 | 48 | 207 | 1.0 | 2.0 | 0.00 | 0.00 | 0.00 | 75 | 1014.0 |
| 20260507223943 | 48 | 175 | 1.0 | 2.0 | 0.00 | 0.00 | 0.00 | 75 | 1013.8 |
| 20260507223043 | 48 | 154 | 1.0 | 2.0 | 0.00 | 0.00 | 0.00 | 74 | 1013.8 |
| 20260507222143 | 48 | 149 | 1.0 | 2.0 | 0.00 | 0.00 | 0.00 | 74 | 1013.9 |
| 20260507221243 | 49 | 172 | 1.0 | 3.0 | 0.00 | 0.00 | 0.00 | 74 | 1013.8 |
| 20260507220343 | 49 | 173 | 1.0 | 4.0 | 0.00 | 0.00 | 0.00 | 74 | 1013.8 |
| 20260507215443 | 49 | 188 | 0.0 | 2.0 | 0.00 | 0.00 | 0.00 | 74 | 1013.9 |
| 20260507214543 | 49 | 192 | 0.0 | 2.0 | 0.00 | 0.00 | 0.00 | 74 | 1013.8 |
| 20260507213643 | 49 | 176 | 0.0 | 2.0 | 0.00 | 0.00 | 0.00 | 74 | 1013.7 |
| 20260507212743 | 49 | 246 | 0.0 | 2.0 | 0.00 | 0.00 | 0.00 | 73 | 1013.7 |
| 20260507211843 | 49 | 248 | 1.0 | 2.0 | 0.00 | 0.00 | 0.00 | 73 | 1014.0 |
| 20260507210943 | 49 | 265 | 2.0 | 4.0 | 0.00 | 0.00 | 0.00 | 73 | 1013.9 |
| 20260507205143 | 50 | 312 | 3.0 | 5.0 | 0.00 | 0.00 | 0.00 | 72 | 1013.4 |
| 20260507204243 | 50 | 286 | 2.0 | 4.0 | 0.00 | 0.00 | 0.00 | 72 | 1013.3 |
| 20260507203343 | 51 | 306 | 3.0 | 8.0 | 0.00 | 0.00 | 0.00 | 72 | 1013.5 |
| 20260507202443 | 51 | 296 | 3.0 | 7.0 | 0.00 | 0.00 | 0.00 | 72 | 1013.4 |
| 20260507201543 | 51 | 293 | 3.0 | 8.0 | 0.00 | 0.00 | 0.00 | 71 | 1013.4 |
| 20260507200643 | 51 | 189 | 1.0 | 3.0 | 0.00 | 0.00 | 0.00 | 71 | 1013.3 |
| 20260507195743 | 51 | 249 | 1.0 | 4.0 | 0.00 | 0.00 | 0.00 | 71 | 1013.2 |
| 20260507194843 | 50 | 293 | 1.0 | 2.0 | 0.00 | 0.00 | 0.00 | 70 | 1013.2 |
| 20260507193943 | 50 | 316 | 1.0 | 3.0 | 0.00 | 0.00 | 0.00 | 70 | 1013.1 |
| 20260507193043 | 50 | 7 | 1.0 | 3.0 | 0.00 | 0.00 | 0.00 | 68 | 1012.9 |
| 20260507192143 | 51 | 114 | 1.0 | 4.0 | 0.00 | 0.00 | 0.00 | 67 | 1012.8 |
| 20260507191243 | 51 | 114 | 1.0 | 4.0 | 0.00 | 0.00 | 0.00 | 67 | 1012.5 |
| 20260507190343 | 51 | 8 | 1.0 | 3.0 | 0.00 | 0.00 | 0.00 | 65 | 1012.7 |
| 20260507183643 | 52 | 311 | 3.0 | 5.0 | 0.00 | 0.00 | 0.00 | 61 | 1012.5 |
| 20260507182743 | 52 | 337 | 4.0 | 7.0 | 0.00 | 0.00 | 0.00 | 60 | 1012.3 |
| 20260507181844 | 53 | 332 | 4.0 | 8.0 | 0.00 | 0.00 | 0.00 | 56 | 1012.2 |
| 20260507180944 | 54 | 287 | 4.0 | 8.0 | 0.00 | 0.00 | 0.00 | 51 | 1012.1 |
| 20260507180044 | 55 | 295 | 4.0 | 9.0 | 0.00 | 0.00 | 0.00 | 51 | 1012.1 |
| 20260507175144 | 55 | 257 | 3.0 | 6.0 | 0.00 | 0.00 | 0.00 | 52 | 1012.1 |
| 20260507174243 | 56 | 269 | 3.0 | 5.0 | 0.00 | 0.00 | 0.00 | 53 | 1012.2 |
| 20260507170643 | 54 | 306 | 7.0 | 14.0 | 0.00 | 0.00 | 0.00 | 52 | 1011.8 |
| 20260507165744 | 56 | 281 | 7.0 | 13.0 | 0.00 | 0.00 | 0.00 | 52 | 1012.0 |
| 20260507164844 | 56 | 267 | 6.0 | 11.0 | 0.00 | 0.00 | 0.00 | 51 | 1012.0 |
| 20260507163943 | 56 | 286 | 4.0 | 8.0 | 0.00 | 0.00 | 0.00 | 50 | 1012.0 |
| 20260507161244 | 56 | 257 | 2.0 | 6.0 | 0.00 | 0.00 | 0.00 | 47 | 1011.9 |
| 20260507155445 | 56 | 244 | 3.0 | 9.0 | 0.00 | 0.00 | 0.00 | 44 | 1011.9 |
| 20260507154543 | 56 | 327 | 3.0 | 7.0 | 0.00 | 0.00 | 0.00 | 42 | 1012.0 |
| 20260507153644 | 58 | 185 | 6.0 | 13.0 | 0.00 | 0.00 | 0.00 | 41 | 1011.5 |
| 20260507152743 | 57 | 159 | 9.0 | 14.0 | 0.00 | 0.00 | 0.00 | 41 | 1011.9 |
| 20260507151844 | 58 | 166 | 9.0 | 13.0 | 0.00 | 0.00 | 0.00 | 40 | 1011.9 |
| 20260507150944 | 58 | 169 | 10.0 | 16.0 | 0.00 | 0.00 | 0.00 | 36 | 1011.7 |
| 20260507150043 | 59 | 175 | 9.0 | 17.0 | 0.00 | 0.00 | 0.00 | 32 | 1011.6 |
| 20260507145144 | 60 | 174 | 6.0 | 12.0 | 0.00 | 0.00 | 0.00 | 30 | 1011.7 |
| 20260507144244 | 61 | 181 | 5.0 | 10.0 | 0.00 | 0.00 | 0.00 | 30 | 1011.8 |
| 20260507143344 | 62 | 130 | 6.0 | 10.0 | 0.00 | 0.00 | 0.00 | 31 | 1012.0 |
| 20260507142443 | 61 | 82 | 5.0 | 12.0 | 0.00 | 0.00 | 0.00 | 32 | 1012.0 |
| 20260507141544 | 59 | 124 | 4.0 | 8.0 | 0.00 | 0.00 | 0.00 | 33 | 1012.1 |
| 20260507134844 | 58 | 151 | 8.0 | 12.0 | 0.00 | 0.00 | 0.00 | 35 | 1012.1 |
| 20260507133944 | 58 | 185 | 7.0 | 13.0 | 0.00 | 0.00 | 0.00 | 37 | 1012.2 |
| 20260507133044 | 58 | 173 | 9.0 | 15.0 | 0.00 | 0.00 | 0.00 | 40 | 1012.3 |
| 20260507132144 | 57 | 166 | 9.0 | 14.0 | 0.00 | 0.00 | 0.00 | 40 | 1012.4 |
| 20260507130344 | 57 | 153 | 10.0 | 17.0 | 0.00 | 0.00 | 0.00 | 40 | 1012.7 |
| 20260507125444 | 57 | 174 | 11.0 | 16.0 | 0.00 | 0.00 | 0.00 | 40 | 1012.5 |
| 20260507124544 | 56 | 169 | 10.0 | 15.0 | 0.00 | 0.00 | 0.00 | 40 | 1012.3 |
| 20260507123644 | 58 | 176 | 9.0 | 17.0 | 0.00 | 0.00 | 0.00 | 40 | 1012.8 |
| 20260507122744 | 57 | 166 | 10.0 | 17.0 | 0.00 | 0.00 | 0.00 | 40 | 1012.6 |
| 20260507121844 | 58 | 150 | 9.0 | 17.0 | 0.00 | 0.00 | 0.00 | 41 | 1012.5 |
| 20260507120944 | 57 | 166 | 10.0 | 16.0 | 0.00 | 0.00 | 0.00 | 42 | 1012.5 |
| 20260507120044 | 56 | 177 | 10.0 | 14.0 | 0.00 | 0.00 | 0.00 | 42 | 1012.8 |
| 20260507115144 | 55 | 168 | 11.0 | 17.0 | 0.00 | 0.00 | 0.00 | 41 | 1012.7 |
| 20260507113344 | 55 | 166 | 8.0 | 15.0 | 0.00 | 0.00 | 0.00 | 40 | 1012.8 |
| 20260507112444 | 56 | 164 | 10.0 | 18.0 | 0.00 | 0.00 | 0.00 | 40 | 1012.7 |
| 20260507111544 | 56 | 154 | 9.0 | 16.0 | 0.00 | 0.00 | 0.00 | 38 | 1012.6 |
| 20260507105744 | 59 | 155 | 9.0 | 17.0 | 0.00 | 0.00 | 0.00 | 35 | 1012.6 |
| 20260507104844 | 59 | 152 | 11.0 | 17.0 | 0.00 | 0.00 | 0.00 | 35 | 1012.7 |
| 20260507103944 | 59 | 163 | 10.0 | 17.0 | 0.00 | 0.00 | 0.00 | 35 | 1012.5 |
| 20260507103044 | 59 | 146 | 9.0 | 18.0 | 0.00 | 0.00 | 0.00 | 37 | 1012.8 |
| 20260507102144 | 58 | 157 | 10.0 | 15.0 | 0.00 | 0.00 | 0.00 | 40 | 1012.5 |
| 20260507101244 | 56 | 169 | 12.0 | 18.0 | 0.00 | 0.00 | 0.00 | 39 | 1012.7 |
| 20260507100344 | 57 | 151 | 10.0 | 18.0 | 0.00 | 0.00 | 0.00 | 37 | 1012.7 |
| 20260507095444 | 57 | 150 | 10.0 | 16.0 | 0.00 | 0.00 | 0.00 | 38 | 1012.7 |
| 20260507093644 | 56 | 158 | 10.0 | 17.0 | 0.00 | 0.00 | 0.00 | 40 | 1012.5 |
| 20260507092744 | 56 | 161 | 10.0 | 15.0 | 0.00 | 0.00 | 0.00 | 40 | 1012.8 |
| 20260507091845 | 55 | 157 | 9.0 | 15.0 | 0.00 | 0.00 | 0.00 | 40 | 1012.7 |
| 20260507090944 | 55 | 151 | 9.0 | 17.0 | 0.00 | 0.00 | 0.00 | 41 | 1012.9 |
| 20260507090044 | 54 | 162 | 9.0 | 15.0 | 0.00 | 0.00 | 0.00 | 44 | 1012.9 |
| 20260507085144 | 54 | 167 | 9.0 | 15.0 | 0.00 | 0.00 | 0.00 | 45 | 1013.2 |
| 20260507084244 | 53 | 170 | 9.0 | 15.0 | 0.00 | 0.00 | 0.00 | 44 | 1013.2 |